This is the latest recevied weather packets stored in our database for station/object IN3APK-3. If no packets are shown the sender has not sent any weather packets the latest 1 day(s).
| Time | Temp. | Humidity | Pressure | Rain* | Wind** | Luminosity | Snow |
|---|---|---|---|---|---|---|---|
| 1777754798 | 11.67° C | 37% | 1016.1 hPa | - | - | - | - |
| 1777754146 | 11.67° C | 37% | 1016.1 hPa | - | - | - | - |
| 1777752190 | 12.78° C | 36% | 1016.1 hPa | - | - | - | - |
| 1777751537 | 12.78° C | 35% | 1016.1 hPa | - | - | - | - |
| 1777750233 | 13.33° C | 35% | 1015.8 hPa | - | - | - | - |
| 1777749581 | 13.89° C | 34% | 1015.7 hPa | - | - | - | - |
| 1777748929 | 14.44° C | 34% | 1015.5 hPa | - | - | - | - |
| 1777748278 | 15.56° C | 33% | 1015.4 hPa | - | - | - | - |
| 1777747626 | 16.11° C | 32% | 1015.3 hPa | - | - | - | - |
| 1777746975 | 17.22° C | 32% | 1015.2 hPa | - | - | - | - |
| 1777746323 | 18.33° C | 31% | 1014.9 hPa | - | - | - | - |
| 1777745673 | 20° C | 29% | 1014.8 hPa | - | - | - | - |
| 1777745022 | 22.22° C | 29% | 1014.7 hPa | - | - | - | - |
| 1777744372 | 24.44° C | 28% | 1014.4 hPa | - | - | - | - |
| 1777743718 | 23.89° C | 28% | 1014.4 hPa | - | - | - | - |
| 1777743066 | 23.33° C | 28% | 1014.4 hPa | - | - | - | - |
| 1777742414 | 23.33° C | 27% | 1014.4 hPa | - | - | - | - |
| 1777741762 | 24.44° C | 27% | 1014.3 hPa | - | - | - | - |
| 1777741113 | 26.11° C | 26% | 1014.2 hPa | - | - | - | - |
| 1777740461 | 27.22° C | 26% | 1014.2 hPa | - | - | - | - |
| 1777739157 | 27.78° C | 25% | 1014.2 hPa | - | - | - | - |
| 1777738506 | 28.89° C | 25% | 1014.3 hPa | - | - | - | - |
| 1777737856 | 31.11° C | 24% | 1014.3 hPa | - | - | - | - |
| 1777737204 | 32.22° C | 24% | 1014.4 hPa | - | - | - | - |
| 1777736552 | 32.22° C | 24% | 1014.5 hPa | - | - | - | - |
* Rain since midnight (hover to see other rain measurements)
** Current wind speed in m/s (hover to see current wind gust speed)